Location: *
(42.5628°N, 2.3633°E)
Time: 07:06:13
(UTC+00:00)

Cosmos 1455 Rocket - Pass Details

Date: 30 March 2020
Orbit: 604 x 630 km, 82.5° (Epoch: 03 June)

Event Time Altitude Azimuth Distance (km) Brightness Sun altitude
Rises 18:54:01 0° 181° (S) 2,846 6.3 -8.0°
Reaches altitude 10° 18:56:13 10° 179° (S) 1,949 5.5 -8.4°
Maximum altitude 19:00:31 71° 96° (E) 648 3.0 -9.1°
Drops below altitude 10° 19:04:52 10° 13° (NNE) 1,977 5.7 -9.9°
Sets 19:07:06 0° 11° (N) 2,891 6.6 -10.3°
